DELTA 1 DEB, 49109

Orbit data source: Space-Track

DELTA 1 DEB, 49109 is space debris in LEO originally from a launch on Thu, 14 Jul 1977 UTC launched from the Air Force Eastern Test Range (AFETR). Debris objects in space refer to the collection of defunct objects orbiting the Earth. Examples of debris include non-operational satellites, rocket bodies, and fragments generated from explosions, collisions, or faulty payload assembly.

Loading next visibility...
Identifier
49109, 1977-065GR
Orbit
LEO
Country
Flag of USUS
Related business
Manufacturer
Unknown
Mission
Spacecraft
Bus & Motor
Unknown
Mass
Unknown
Launch date (UTC)
1977-07-14 (49 years ago)
Launch vehicle
Unknown
Launch site
Air Force Eastern Test Range (AFETR)
Object type
Payload
Rocket body
Debris
Shape & HBR
Unknown shape, 1.1 m
Radar Cross Section
RCS unknown

Expand to show TLE details & history
Last TLE update: 18 hours ago

TLE from 18 hours ago
0 DELTA 1 DEB
1 49109U 77065GR  26132.60766227  .00000449  00000-0  86691-4 0  9999
2 49109  29.0630 247.3810 0654523  31.0358 332.7248 13.68392921  7960
Epoch: 2026-05-12T14:35Z
TLE epoch observation values (Epoch: 2026-05-12T14:35:02.020Z)
Latitude
0.00002°
Longitude
158.24302°
Altitude
581.597 km
Speed
7.785 km/s
True Right ascension
16h 29m 31s
True Declination
0° 00' 00"
Sunlit
Object was in full shadow at epoch
Visualization orbit readout
Latitude
Unknown
Longitude
Unknown
Altitude
Unknown
Speed
Unknown
Apparent Right ascension
Unknown
Apparent Declination
Unknown
Sunlit
N/A
Visualization observer readout
Local Sidereal Time
17:17:39
Azimuth
Unknown
Elevation
Unknown
Doppler factor
Unknown
Orbital elements
Apogee altitude
1,492.751 km
Perigee altitude
525.711 km
Semi-major axis
7,387.368 km
Eccentricity
0.06545
Inclination
29.063°
RAAN
247.381°
Arg. of periapsis
31.0358°
True anomaly
329.02167°
Mean anomaly
332.7248°
Eccentric anomaly
330.90103°
Mean motion
3.41829 °/min
Orbital period
105.32 mins
BSTAR
0.000086691
Loading maneuver chart data...
Computing Atmospheric mass density...
Loading historical data...
Loading historical data...
Loading historical data...
Loading historical data...
Loading historical data...
Loading historical data...
Loading historical data...

Documentation

Showing up to 5 results
|